Regional Weather Roundup
Issued by NWS

Home | Current Version | Previous Version | Graphics & Text | Print | Product List | Glossary On
Versions: 1 2 3 4 5 6 7 8 9 10 11 12 13 14 15 16 17 18 19 20 21 22 23 24 25 26 27 28 29 30 31 32 33 34 35 36 37 38 39 40 41 42 43 44 45 46 47 48 49 50
464
ASUS43 KIND 291809
RWRIN

WEATHER ROUNDUP FOR INDIANA
NATIONAL WEATHER SERVICE INDIANAPOLIS IN
200 PM EDT WED MAR 29 2017

NOTE: "FAIR" INDICATES FEW OR NO CLOUDS BELOW 12,000 FEET WITH NO
SIGNIFICANT WEATHER AND/OR OBSTRUCTIONS TO VISIBILITY.

* - STATION DOES NOT REPORT WEATHER SUCH AS PRECIPITATION OR FOG.

+ - STATION NOT QUALITY CONTROLLED BY THE NATIONAL WEATHER SERVICE.
    USE DATA WITH CAUTION...ESPECIALLY DEWPOINT AND RELATIVE
    HUMIDITY OBSERVATIONS.

INZ001>003-010>013-019-020-291900-
NORTHWEST INDIANA

CITY           SKY/WX    TMP DP  RH WIND       PRES   REMARKS
GARY /AIRPORT/ PTSUNNY   46  37  71 NE8       30.24S
KNOX *+        CLOUDY    54   9  16 E16       30.21F
LA PORTE +     MOSUNNY   54  37  51 E12       30.24R
6HR MIN TEMP:  36; 6HR MAX TEMP:  54;

MICHIGAN CITY+ CLOUDY    55  34  44 E7        30.24R
MONTICELLO +   MOSUNNY   54  35  49 E14G21    30.19S
6HR MIN TEMP:  41; 6HR MAX TEMP:  54;

RENSSELAER +   PTSUNNY   54  36  50 E18       30.18F
VALPARAISO     MOSUNNY   58  38  47 E20       30.21F
6HR MIN TEMP:  35; 6HR MAX TEMP:  58;


$$

LMZ046-743>745-291900-
SOUTHERN LAKE MICHIGAN

STATION/POSITION TIME  TEMP    WIND        PRES    WAVE
                       AIR SEA DIR/SP/G            HT
                 (UTC) (F)     (DEG/KT/KT) (MB)    (FT)
BURNS HARBOR     1740   42      50/  8/ 10 1024.4S
MICHIGAN CITY    1740   39      20/ 11/ 12   N/A

$$

INZ004-005-014>016-021>024-291900-
NORTH CENTRAL INDIANA

CITY           SKY/WX    TMP DP  RH WIND       PRES   REMARKS
ELKHART        MOSUNNY   54  34  47 E12G20    30.23F
GOSHEN         MOSUNNY   54  34  46 E18       30.22F
6HR MIN TEMP:  35; 6HR MAX TEMP:  55;

LOGANSPORT +   SUNNY     55  37  50 E15G21    30.21S
PERU/GRISSOM   SUNNY     55  39  54 E16G25    30.18S
6HR MIN TEMP:  40; 6HR MAX TEMP:  55;

ROCHESTER +    MOSUNNY   57  36  44 E15       30.21F
SOUTH BEND     CLOUDY    55  35  47 E9        30.24S
6HR MIN TEMP:  35; 6HR MAX TEMP:  55;

WARSAW +       MOSUNNY   54  34  47 E17G23    30.22S

$$

INZ006>009-017-018-025>027-291900-
NORTHEAST INDIANA

CITY           SKY/WX    TMP DP  RH WIND       PRES   REMARKS
ANGOLA *+      SUNNY     52  39  62 E16       30.25S
AUBURN +       SUNNY     54  34  47 E16G23    30.25S
FORT WAYNE     PTSUNNY   54  38  54 E22G28    30.22F
6HR MIN TEMP:  35; 6HR MAX TEMP:  55;

HUNTINGTON +   SUNNY     54  38  55 E12G21    30.21S
6HR MIN TEMP:  36; 6HR MAX TEMP:  54;

KENDALLVILLE + CLOUDY    52  34  50 E17       30.24F

$$

INZ028-029-035-036-043>045-051>053-291900-
WEST CENTRAL INDIANA

CITY           SKY/WX    TMP DP  RH WIND       PRES   REMARKS
CRAWFORDSVL +  SUNNY     56  44  64 E12       30.14F
6HR MIN TEMP:  43; 6HR MAX TEMP:  56;

GREENCASTLE +  SUNNY     55  43  62 E14G20    30.14F
LAFAYETTE      MOSUNNY   55  40  56 E21G26    30.16F
6HR MIN TEMP:  44; 6HR MAX TEMP:  56;

TERRE HAUTE    PTSUNNY   56  45  66 E9        30.11F
6HR MIN TEMP:  50; 6HR MAX TEMP:  57;


$$

INZ030>032-037>040-046>048-054>057-064-065-291900-
CENTRAL INDIANA

CITY           SKY/WX    TMP DP  RH WIND       PRES   REMARKS
ANDERSON       SUNNY     54  41  62 E12G23    30.19F
CP ATTERBURY + PTSUNNY   57  45  62 E12       30.16F
COLUMBUS       MOSUNNY   57  46  67 E9        30.17S
FRANKFORT +    SUNNY     56  45  65 E17G26    30.19S
6HR MIN TEMP:  46; 6HR MAX TEMP:  56;

GREENWOOD *+   SUNNY     52  43  70 E12G18    30.17F
6HR MIN TEMP:  46; 6HR MAX TEMP:  53;

INDIANAPOLIS   MOSUNNY   53  40  61 E15G24    30.15F
6HR MIN TEMP:  46; 6HR MAX TEMP:  55; 6HR PCP: TRACE;

-EAGLE CREEK   SUNNY     54  40  59 E14       30.15F
6HR MIN TEMP:  46; 6HR MAX TEMP:  54;

KOKOMO +       SUNNY     53  43  68 E16       30.20S
6HR MIN TEMP:  40; 6HR MAX TEMP:  53; 6HR PCP: TRACE;

MARION +       SUNNY     52  40  62 E14G21    30.21R HAZE
MT COMFORT *+  SUNNY     54  41  62 E15       30.18F
SHELBYVILLE    MOSUNNY   54  42  64 E16       30.17F
6HR MIN TEMP:  46; 6HR MAX TEMP:  54;

ZIONSVILLE +   SUNNY     52  42  68 E14G21    30.18S
6HR MIN TEMP:  43; 6HR MAX TEMP:  52;


$$

INZ033-034-041-042-049-050-058-059-291900-
EAST CENTRAL INDIANA

CITY           SKY/WX    TMP DP  RH WIND       PRES   REMARKS
MUNCIE         SUNNY     55  42  61 E17G24    30.19F
6HR MIN TEMP:  40; 6HR MAX TEMP:  55;

RICHMOND +     SUNNY     54  41  62 E13G21    30.19S

$$

INZ060-061-067>069-081>083-085>088-291900-
SOUTHWEST INDIANA

CITY           SKY/WX    TMP DP  RH WIND       PRES   REMARKS
EVANSVILLE     MOSUNNY   67  52  58 E9        30.05F
6HR MIN TEMP:  49; 6HR MAX TEMP:  67;

HUNTINGBURG *+ MOSUNNY   64  53  67 E13G24    30.06F
6HR MIN TEMP:  50; 6HR MAX TEMP:  64;

WASHINGTON +   CLOUDY    57  47  67 MISG      30.09F
6HR MIN TEMP:  46; 6HR MAX TEMP:  58;


$$

INZ062-063-066-070>080-084-089>092-291900-
SOUTH CENTRAL AND SOUTHEAST INDIANA

CITY           SKY/WX    TMP DP  RH WIND       PRES   REMARKS
BEDFORD +      CLOUDY    57  45  62 E13       30.12F
BLOOMINGTON    MOSUNNY   56  45  66 SE13G18   30.12F
6HR MIN TEMP:  49; 6HR MAX TEMP:  56;

MADISON *+     CLOUDY    57  43  58 E5        30.18S
NORTH VERNON + SUNNY     57  43  58 CALM      30.17F
SEYMOUR +      CLOUDY    59  45  58 E8        30.14F

$$





USA.gov is the U.S. government's official web portal to all federal, state and local government web resources and services.